Pasco, WA
on Tuesday, November 20, 2012

Tuesday
Previous Day Next Day
Daily Summary
 ActualAverageRecord
Temperature
Mean Temperature °F 40°F  
Max Temperature 58°F 48°F 62°F (1998)
Min Temperature 45°F 32°F 14°F (2013)
Degree Days
Heating Degree Days 13 25  
Month to date heating degree days 385 438  
Since 1 July heating degree days 829 956  
Cooling Degree Days 0 0  
Month to date cooling degree days 0 0  
Year to date cooling degree days 788 710  
Growing Degree Days2 (Base °F )  
Moisture
Dew Point 47°F   
Average Humidity 82    
Maximum Humidity 96    
Minimum Humidity 68    
Precipitation
Precipitation 0.35 in in 0.85 in (1966)
Month to date precipitation 0.85  
Year to date precipitation 8.31  
Snow
Snow 0.00 in in in ()
Snow Depth 0.00 in   
Wind
Wind Speed 8 mph   
Max Wind Speed 23 mph   
Max Gust Speed 30 mph   
Visibility 10 miles   
Events Rain   

Key: T is trace of precipitation, MM is missing value
Source: NWS Daily Summary
Time(PST)TemperatureDew PointHumidity Pressure Visibility Wind DirectionWind SpeedGust SpeedPrecipitationEvents Conditions
12:53 AM 53.1°F 46.0°F 77% 29.77 in 10.0 miles SSW 16.1 mph - N/A   Mostly Cloudy
1:53 AM 52.0°F 46.9°F 83% 29.78 in 10.0 miles South 11.5 mph - N/A   Mostly Cloudy
2:53 AM 53.1°F 48.0°F 83% 29.77 in 10.0 miles South 15.0 mph - 0.00 in Rain Light Rain
3:53 AM 51.1°F 48.0°F 89% 29.79 in 10.0 miles North 4.6 mph - 0.00 in Rain Light Rain
4:53 AM 50.0°F 48.0°F 93% 29.76 in 10.0 miles Calm Calm - 0.01 in   Overcast
5:53 AM 52.0°F 48.0°F 86% 29.75 in 10.0 miles Calm Calm - 0.00 in Rain Light Rain
6:53 AM 51.1°F 48.0°F 89% 29.74 in 9.0 miles Calm Calm - 0.00 in Rain Light Rain
7:53 AM 51.1°F 48.0°F 89% 29.75 in 5.0 miles Calm Calm - 0.08 in Rain Rain
8:53 AM 50.0°F 48.9°F 96% 29.74 in 10.0 miles SE 6.9 mph - 0.08 in Rain Light Rain
9:53 AM 51.1°F 48.9°F 92% 29.73 in 7.0 miles SE 13.8 mph - 0.07 in Rain Rain
11:53 AM 51.1°F 50.0°F 96% 29.69 in 10.0 miles ESE 11.5 mph - 0.03 in Rain Light Rain
12:53 PM 54.0°F 52.0°F 93% 29.69 in 10.0 miles ESE 10.4 mph - 0.00 in   Mostly Cloudy
1:53 PM 55.0°F 51.1°F 86% 29.67 in 10.0 miles SE 11.5 mph - N/A   Mostly Cloudy
2:53 PM 57.0°F 51.1°F 81% 29.68 in 10.0 miles ENE 5.8 mph - N/A   Partly Cloudy
3:53 PM 55.9°F 51.1°F 84% 29.68 in 10.0 miles Calm Calm - N/A   Scattered Clouds
4:53 PM 53.1°F 50.0°F 89% 29.72 in 10.0 miles WNW 8.1 mph - N/A   Mostly Cloudy
5:53 PM 52.0°F 48.0°F 86% 29.73 in 10.0 miles WSW 9.2 mph - N/A   Mostly Cloudy
6:53 PM 51.1°F 44.1°F 77% 29.74 in 10.0 miles SW 6.9 mph - N/A   Overcast
7:53 PM 51.1°F 41.0°F 68% 29.74 in 10.0 miles West 5.8 mph - N/A   Overcast
8:53 PM 51.1°F 42.1°F 71% 29.75 in 10.0 miles SE 3.5 mph - N/A   Overcast
9:53 PM 50.0°F 43.0°F 77% 29.73 in 10.0 miles South 5.8 mph - N/A   Mostly Cloudy
10:53 PM 48.0°F 44.1°F 86% 29.72 in 10.0 miles East 3.5 mph - N/A   Mostly Cloudy
11:53 PM 45.0°F 44.1°F 97% 29.71 in 10.0 miles WNW 3.5 mph - N/A   Overcast
Moon Phase
Nov. 20 Nov. 28 Dec. 06 Dec. 13 Dec. 20
Sunrise:07:05 AM (PST) Moon Rise:12:29 PM (PST)
Sunset:04:18 PM (PST) Moon Set:No Moon Set/

Copyright © 2014 The Weather Underground, Inc.